TimeCST,TemperatureF,Dew PointF,Humidity,Sea Level PressureIn,VisibilityMPH,Wind Direction,Wind SpeedMPH,Gust SpeedMPH,PrecipitationIn,Events,Conditions,WindDirDegrees,DateUTC
12:52 AM,46.0,37.9,73,30.12,10.0,NNE,4.6,-,N/A,,Overcast,20,2012-11-06 06:52:00
2:52 AM,45.0,37.0,74,30.11,10.0,Calm,Calm,-,N/A,,Overcast,0,2012-11-06 08:52:00
3:52 AM,44.1,37.9,79,30.09,10.0,Calm,Calm,-,N/A,,Overcast,0,2012-11-06 09:52:00
5:52 AM,43.0,37.9,82,30.13,10.0,West,3.5,-,N/A,,Overcast,270,2012-11-06 11:52:00
6:39 AM,42.8,37.4,81,30.09,10.0,Calm,Calm,-,N/A,,Overcast,0,2012-11-06 12:39:00
6:52 AM,43.0,37.9,82,30.11,10.0,Calm,Calm,-,N/A,,Overcast,0,2012-11-06 12:52:00
8:52 AM,46.0,37.9,73,30.12,10.0,SSW,6.9,-,N/A,,Mostly Cloudy,200,2012-11-06 14:52:00
9:52 AM,48.9,37.9,66,30.10,10.0,SW,11.5,-,N/A,,Partly Cloudy,220,2012-11-06 15:52:00
10:52 AM,53.1,39.0,59,30.10,10.0,WSW,10.4,-,N/A,,Partly Cloudy,240,2012-11-06 16:52:00
11:52 AM,55.9,39.0,53,30.09,10.0,West,11.5,-,N/A,,Clear,260,2012-11-06 17:52:00
12:52 PM,62.1,39.0,43,30.06,10.0,NW,10.4,18.4,N/A,,Clear,310,2012-11-06 18:52:00
1:52 PM,66.0,37.0,34,30.03,10.0,NNW,11.5,-,N/A,,Clear,340,2012-11-06 19:52:00
2:52 PM,64.9,30.9,28,30.02,10.0,NNW,17.3,26.5,N/A,,Clear,340,2012-11-06 20:52:00
3:52 PM,64.9,28.0,25,30.03,10.0,NNW,17.3,25.3,N/A,,Clear,340,2012-11-06 21:52:00
4:52 PM,62.1,28.9,29,30.04,10.0,North,8.1,-,N/A,,Clear,350,2012-11-06 22:52:00
5:52 PM,52.0,28.9,41,30.07,10.0,NNW,5.8,-,N/A,,Clear,340,2012-11-06 23:52:00
6:52 PM,51.1,27.0,39,30.09,10.0,North,3.5,-,N/A,,Clear,360,2012-11-07 00:52:00
7:52 PM,43.0,28.0,56,30.12,10.0,Calm,Calm,-,N/A,,Clear,0,2012-11-07 01:52:00
8:52 PM,37.0,28.0,70,30.12,10.0,Calm,Calm,-,N/A,,Clear,0,2012-11-07 02:52:00
9:52 PM,36.0,27.0,70,30.13,10.0,Calm,Calm,-,N/A,,Clear,0,2012-11-07 03:52:00
10:52 PM,32.0,27.0,82,30.13,10.0,Calm,Calm,-,N/A,,Clear,0,2012-11-07 04:52:00
11:52 PM,32.0,26.1,79,30.12,10.0,Calm,Calm,-,N/A,,Clear,0,2012-11-07 05:52:00